When you browse on this site, cookies collect data to enhance your experience and personalize the content and advertising you see.
Visit our Privacy Policy to learn more. By continuing to use the site, you agree to this use of cookies and data.
  • In Czech Republic
  • List of Countries
  • For 7 days
  • Water Temperature
  • Weather Map
  • Weather Widgets
  • user-avatar
    Login

    Hourly Weather Igls

    Today, 8 December, Sunday

    Time Temperature Precipitation Wind Pressure Humidity
    00:00 +3°C° 0 mm 1 mps 685 mmHg 83%
    01:00 +3°C° 0 mm 1 mps 685 mmHg 80%
    02:00 +3°C° 0 mm 1 mps 685 mmHg 75%
    03:00 +3°C° 0 mm 1 mps 684 mmHg 70%
    04:00 +2°C° 0 mm 2 mps 684 mmHg 65%
    05:00 +2°C° 0 mm 2 mps 684 mmHg 61%
    06:00 +2°C° 0 mm 2 mps 684 mmHg 56%
    07:00 +3°C° 0 mm 2 mps 684 mmHg 53%
    08:00 +4°C° 0 mm 2 mps 684 mmHg 53%
    09:00 +5°C° 0 mm 2 mps 684 mmHg 53%
    10:00 +6°C° 0 mm 2 mps 683 mmHg 53%
    11:00 +7°C° 0 mm 2 mps 683 mmHg 56%
    12:00 +8°C° 0 mm 2 mps 683 mmHg 59%
    13:00 +9°C° 0 mm 2 mps 682 mmHg 61%
    14:00 +8°C° 0 mm 2 mps 682 mmHg 62%
    15:00 +6°C° 0 mm 2 mps 681 mmHg 63%
    16:00 +5°C° 0 mm 2 mps 681 mmHg 64%
    17:00 +4°C° 0 mm 2 mps 681 mmHg 62%
    18:00 +3°C° 0 mm 2 mps 680 mmHg 60%
    19:00 +2°C° 0 mm 3 mps 680 mmHg 59%
    20:00 +2°C° 0 mm 3 mps 680 mmHg 60%
    21:00 +1°C° 0 mm 3 mps 680 mmHg 61%
    22:00 +2°C° 0 mm 2 mps 679 mmHg 63%
    23:00 +2°C° 0 mm 2 mps 679 mmHg 65%

    Tomorrow, 9 December, Monday

    Time Temperature Precipitation Wind Pressure Humidity
    00:00 +2°C° 0 mm 2 mps 679 mmHg 67%
    01:00 +3°C° 0 mm 1 mps 679 mmHg 69%
    02:00 +3°C° 0 mm 1 mps 678 mmHg 70%
    03:00 +3°C° 0 mm 1 mps 678 mmHg 71%
    04:00 +3°C° 0 mm 1 mps 677 mmHg 72%
    05:00 +3°C° 0.5 mm 1 mps 677 mmHg 77%
    06:00 +2°C° 0.5 mm 1 mps 677 mmHg 82%
    07:00 +2°C° 0.5 mm 1 mps 677 mmHg 87%
    08:00 +2°C° 0.2 mm 1 mps 677 mmHg 88%
    09:00 +3°C° 0.2 mm 1 mps 677 mmHg 88%
    10:00 +3°C° 0.2 mm 1 mps 677 mmHg 88%
    11:00 +4°C° 0.1 mm 1 mps 677 mmHg 85%
    12:00 +5°C° 0.1 mm 1 mps 676 mmHg 82%
    13:00 +6°C° 0.1 mm 1 mps 676 mmHg 79%
    14:00 +4°C° 0 mm 0 mps 675 mmHg 81%
    15:00 +3°C° 0 mm 0 mps 675 mmHg 82%
    16:00 +2°C° 0 mm 0 mps 675 mmHg 84%
    17:00 +2°C° 0 mm 1 mps 675 mmHg 83%
    18:00 +2°C° 0 mm 1 mps 676 mmHg 81%
    19:00 +1°C° 0 mm 1 mps 677 mmHg 80%
    20:00 +1°C° 0.4 mm 1 mps 677 mmHg 84%
    21:00 +1°C° 0.4 mm 1 mps 678 mmHg 88%
    22:00 +1°C° 0.4 mm 1 mps 679 mmHg 93%
    23:00 -1°C° 0.7 mm 2 mps 679 mmHg 94%

    Day after tomorrow, 10 December, Tuesday

    Time Temperature Precipitation Wind Pressure Humidity
    00:00 -1°C° 0.7 mm 2 mps 680 mmHg 95%
    01:00 -1°C° 0.7 mm 2 mps 681 mmHg 97%
    02:00 -1°C° 1 mm 2 mps 682 mmHg 96%
    03:00 -1°C° 1 mm 2 mps 682 mmHg 96%
    04:00 -1°C° 1 mm 3 mps 683 mmHg 96%
    05:00 -1°C° 0.9 mm 3 mps 684 mmHg 96%
    06:00 -2°C° 0.9 mm 2 mps 685 mmHg 96%
    07:00 -2°C° 0.9 mm 2 mps 686 mmHg 96%
    08:00 -2°C° 0.4 mm 2 mps 686 mmHg 94%
    09:00 -2°C° 0.4 mm 2 mps 687 mmHg 91%
    10:00 -2°C° 0.4 mm 2 mps 687 mmHg 89%
    11:00 -2°C° 0.1 mm 2 mps 687 mmHg 85%
    12:00 -2°C° 0.1 mm 2 mps 687 mmHg 81%
    13:00 -1°C° 0.1 mm 2 mps 687 mmHg 78%
    14:00 -3°C° 0 mm 2 mps 687 mmHg 81%
    15:00 -2°C° 0 mm 1 mps 687 mmHg 84%
    16:00 -3°C° 0 mm 1 mps 687 mmHg 88%
    17:00 -3°C° 0 mm 1 mps 687 mmHg 82%
    18:00 -6°C° 0 mm 2 mps 687 mmHg 77%
    19:00 -7°C° 0 mm 2 mps 687 mmHg 72%
    20:00 -6°C° 0 mm 2 mps 687 mmHg 66%
    21:00 -6°C° 0 mm 2 mps 686 mmHg 59%
    22:00 -6°C° 0 mm 2 mps 686 mmHg 53%
    23:00 -5°C° 0 mm 2 mps 686 mmHg 48%

    11 December, Wednesday

    Time Temperature Precipitation Wind Pressure Humidity
    00:00 -5°C° 0 mm 2 mps 686 mmHg 44%
    01:00 -4°C° 0 mm 2 mps 685 mmHg 40%
    02:00 -4°C° 0 mm 2 mps 685 mmHg 38%
    03:00 -3°C° 0 mm 2 mps 684 mmHg 37%
    04:00 -3°C° 0 mm 2 mps 683 mmHg 36%
    05:00 -2°C° 0 mm 2 mps 683 mmHg 35%
    06:00 -2°C° 0 mm 2 mps 683 mmHg 35%
    07:00 -2°C° 0 mm 2 mps 682 mmHg 35%
    08:00 +2°C° 0 mm 1 mps 682 mmHg 39%
    09:00 +3°C° 0 mm 1 mps 682 mmHg 43%
    10:00 +5°C° 0 mm 1 mps 682 mmHg 47%
    11:00 +6°C° 0 mm 1 mps 681 mmHg 53%
    12:00 +7°C° 0 mm 1 mps 680 mmHg 59%
    13:00 +8°C° 0 mm 1 mps 680 mmHg 64%
    14:00 +7°C° 0 mm 1 mps 679 mmHg 62%
    15:00 +6°C° 0 mm 1 mps 678 mmHg 60%
    16:00 +4°C° 0 mm 1 mps 678 mmHg 57%
    17:00 +4°C° 0 mm 1 mps 678 mmHg 57%
    18:00 +4°C° 0 mm 1 mps 678 mmHg 57%
    19:00 +3°C° 0 mm 0 mps 678 mmHg 57%
    20:00 +3°C° 0 mm 1 mps 678 mmHg 63%
    21:00 +3°C° 0 mm 1 mps 678 mmHg 69%
    22:00 +2°C° 0 mm 1 mps 678 mmHg 74%
    23:00 +2°C° 0.1 mm 1 mps 677 mmHg 78%

    12 December, Thursday

    Time Temperature Precipitation Wind Pressure Humidity
    00:00 +2°C° 0.1 mm 1 mps 677 mmHg 81%
    01:00 +2°C° 0.1 mm 1 mps 677 mmHg 84%
    02:00 +1°C° 0.3 mm 1 mps 677 mmHg 87%
    03:00 +1°C° 0.3 mm 1 mps 676 mmHg 91%
    04:00 +1°C° 0.3 mm 1 mps 676 mmHg 94%
    05:00 +1°C° 1.3 mm 1 mps 677 mmHg 95%
    06:00 -1°C° 1.3 mm 2 mps 677 mmHg 95%
    07:00 -1°C° 1.3 mm 2 mps 678 mmHg 96%
    08:00 -1°C° 0.7 mm 2 mps 678 mmHg 92%
    09:00 +1°C° 0.7 mm 1 mps 679 mmHg 89%
    10:00 +1°C° 0.7 mm 1 mps 679 mmHg 85%
    11:00 +1°C° 0.1 mm 1 mps 679 mmHg 81%
    12:00 +1°C° 0.1 mm 1 mps 679 mmHg 77%
    13:00 -1°C° 0.1 mm 2 mps 679 mmHg 72%
    14:00 0°C° 0 mm 1 mps 679 mmHg 76%
    15:00 -1°C° 0 mm 1 mps 678 mmHg 80%
    16:00 -4°C° 0 mm 0 mps 678 mmHg 85%
    17:00 -3°C° 0 mm 1 mps 678 mmHg 82%
    18:00 -4°C° 0 mm 1 mps 678 mmHg 79%
    19:00 -7°C° 0 mm 2 mps 678 mmHg 77%
    20:00 -7°C° 0 mm 2 mps 677 mmHg 73%
    21:00 -8°C° 0 mm 3 mps 677 mmHg 70%
    22:00 -8°C° 0 mm 3 mps 676 mmHg 66%
    23:00 -9°C° 0 mm 4 mps 676 mmHg 68%

    13 December, Friday

    Time Temperature Precipitation Wind Pressure Humidity
    00:00 -8°C° 0 mm 4 mps 675 mmHg 69%
    01:00 -8°C° 0 mm 4 mps 674 mmHg 70%
    02:00 -7°C° 0.1 mm 5 mps 673 mmHg 73%
    03:00 -7°C° 0.1 mm 5 mps 673 mmHg 75%
    04:00 -6°C° 0.1 mm 5 mps 672 mmHg 78%
    05:00 -6°C° 0.2 mm 5 mps 671 mmHg 80%
    06:00 -6°C° 0.2 mm 5 mps 670 mmHg 83%
    07:00 -6°C° 0.2 mm 5 mps 670 mmHg 85%
    08:00 -5°C° 0.7 mm 4 mps 670 mmHg 86%
    09:00 -4°C° 0.7 mm 4 mps 670 mmHg 88%
    10:00 -4°C° 0.7 mm 4 mps 670 mmHg 89%
    11:00 -2°C° 1.1 mm 3 mps 670 mmHg 90%
    12:00 -1°C° 1.1 mm 3 mps 669 mmHg 91%
    13:00 -1°C° 1.1 mm 2 mps 669 mmHg 91%
    14:00 +1°C° 1.3 mm 2 mps 669 mmHg 93%
    15:00 +1°C° 1.3 mm 2 mps 669 mmHg 94%
    16:00 +1°C° 1.3 mm 2 mps 670 mmHg 95%
    17:00 +1°C° 0.7 mm 2 mps 670 mmHg 95%
    18:00 +1°C° 0.7 mm 2 mps 671 mmHg 95%
    19:00 +1°C° 0.7 mm 1 mps 671 mmHg 95%
    20:00 +1°C° 0.3 mm 1 mps 671 mmHg 95%
    21:00 -1°C° 0.3 mm 2 mps 671 mmHg 94%
    22:00 -2°C° 0.3 mm 2 mps 672 mmHg 93%
    23:00 -1°C° 1.6 mm 2 mps 672 mmHg 94%
    Show more